Thomasville, PA

12:27 AM EDT on July 30, 2016 (GMT -0400)
York

Weather History for KTHV - January, 2014

Change the Weather History Date:

Sunday, January 19, 2014

  Actual Average Record
Temperature  
Mean Temperature 27 °F -  
Max Temperature 37 °F 0 °F 53 °F (2013)
Min Temperature 17 °F - 3 °F (2009)
Degree Days  
Heating Degree Days 38    
Moisture  
Dew Point 17 °F    
Average Humidity 60    
Maximum Humidity 74    
Minimum Humidity 48    
Precipitation  
Precipitation 0.00 in - - ()
Sea Level Pressure  
Sea Level Pressure 29.81 in    
Wind  
Wind Speed 3 mph (SW)    
Max Wind Speed 12 mph    
Max Gust Speed 29 mph    
Visibility 10 miles    
Events      
Averages and records for this station are not official NWS values.
T = Trace of Precipitation, MM = Missing Value Source: NWS Daily Summary

Daily Weather History Graph

Daily Weather History Graph

Search for Another Location

Airport or City:

Trip Planner

Search our weather history database for the weather conditions in past years. The results will help you decide how hot, cold, wet, or windy it might be!

Date:

Astronomy

Jan. 19, 2014 Rise Set
Actual Time 7:25 AM EST 5:11 PM EST
Civil Twilight 6:55 AM EST 5:40 PM EST
Nautical Twilight 6:22 AM EST 6:14 PM EST
Astronomical Twilight 5:50 AM EST 6:46 PM EST
Moon 8:47 PM EST (1/19) 8:54 AM EST (1/19)
Length of Visible Light 10h 44m
Length of Day
9h 46m
Waning Gibbous, 89% of the Moon is Illuminated
Jan 19
Waning Gibbous
Jan 24
Last Quarter
Jan 30
New
Feb 6
First Quarter
Feb 14
Full

Hourly Weather History & Observations

Time (EST) Temp. Windchill Dew Point Humidity Pressure Visibility Wind Dir Wind Speed Gust Speed Precip Events Conditions
12:53 AM 17.1 °F - 10.0 °F 74% 29.94 in 10.0 mi Calm Calm - N/A   Partly Cloudy
1:53 AM 19.0 °F - 10.0 °F 68% 29.93 in 10.0 mi Calm Calm - N/A   Overcast
2:53 AM 19.9 °F 14.9 °F 10.9 °F 68% 29.93 in 8.0 mi SSE 3.5 mph - N/A   Overcast
3:53 AM 19.9 °F - 10.0 °F 65% 29.90 in 10.0 mi Calm Calm - N/A   Scattered Clouds
4:53 AM 19.9 °F - 12.0 °F 71% 29.89 in 10.0 mi Calm Calm - N/A   Overcast
5:53 AM 21.0 °F - 12.0 °F 68% 29.87 in 10.0 mi Calm Calm - N/A   Overcast
6:53 AM 21.0 °F - 12.9 °F 71% 29.84 in 10.0 mi Calm Calm - N/A   Overcast
7:53 AM 21.0 °F - 12.9 °F 71% 29.84 in 10.0 mi Calm Calm - N/A   Overcast
8:53 AM 23.0 °F 17.0 °F 12.9 °F 65% 29.84 in 10.0 mi SSW 4.6 mph - N/A   Overcast
9:53 AM 25.0 °F 18.1 °F 14.0 °F 63% 29.83 in 10.0 mi SW 5.8 mph - N/A   Overcast
10:53 AM 27.0 °F 21.6 °F 15.1 °F 61% 29.83 in 10.0 mi West 4.6 mph - N/A   Overcast
11:53 AM 28.9 °F 23.9 °F 17.1 °F 61% 29.80 in 10.0 mi WSW 4.6 mph - N/A   Overcast
12:53 PM 32.0 °F 28.7 °F 19.9 °F 61% 29.77 in 10.0 mi Variable 3.5 mph - N/A   Overcast
1:53 PM 36.0 °F 31.1 °F 23.0 °F 59% 29.74 in 10.0 mi WSW 5.8 mph - N/A   Mostly Cloudy
2:53 PM 37.9 °F 30.5 °F 24.1 °F 57% 29.74 in 10.0 mi West 11.5 mph 28.8 mph N/A   Clear
3:53 PM 37.0 °F 29.3 °F 23.0 °F 57% 29.73 in 10.0 mi WSW 11.5 mph 19.6 mph N/A   Clear
4:53 PM 37.9 °F 30.5 °F 21.9 °F 53% 29.74 in 10.0 mi WSW 11.5 mph 18.4 mph N/A   Clear
5:53 PM 37.0 °F 31.6 °F 21.0 °F 52% 29.76 in 10.0 mi Variable 6.9 mph - N/A   Clear
6:53 PM 37.0 °F 31.0 °F 21.0 °F 52% 29.74 in 10.0 mi WSW 8.1 mph - N/A   Clear
7:53 PM 37.0 °F 31.6 °F 19.9 °F 50% 29.75 in 10.0 mi WSW 6.9 mph - N/A   Clear
8:53 PM 37.0 °F 30.4 °F 19.9 °F 50% 29.75 in 10.0 mi WSW 9.2 mph 17.3 mph N/A   Clear
9:53 PM 37.0 °F 31.6 °F 19.9 °F 50% 29.74 in 10.0 mi WSW 6.9 mph - N/A   Clear
10:53 PM 37.0 °F 32.4 °F 19.0 °F 48% 29.73 in 10.0 mi SW 5.8 mph - N/A   Clear
11:53 PM 36.0 °F 29.6 °F 19.9 °F 52% 29.70 in 10.0 mi SSW 8.1 mph - N/A   Clear